This demonstration page uses our WeatherBlox Daily Observations layout. Learn more.

38.89511, -77.03637

Hourly Observations for June 8, 2015

Temp ( °F °C ) Dew Point ( °F °C ) Humidity (%) Winds ( mph kmh ) Pressure ( in mb ) Visibility ( mi km ) Precip ( " mm )
12:52 am 00:52 Mostly Cloudy 70 21 57 14 64 64 S 13 20 30.09 1019 10 16.09344 0 0
1:52 am 01:52 Mostly Cloudy 66 19 57 14 73 73 S 10 17 30.06 1018 10 16.09344 0 0
2:52 am 02:52 Mostly Cloudy 66 19 54 12 64 64 SSW 10 17 30.06 1018 10 16.09344 0 0
3:52 am 03:52 Mostly Cloudy 66 19 54 12 64 64 S 13 20 30.06 1018 10 16.09344 0 0
4:52 am 04:52 Mostly Cloudy 66 19 54 12 64 64 S 15 24 30.03 1017 10 16.09344 0 0
5:52 am 05:52 Mostly Cloudy 64 18 54 12 68 68 S 15 24 30.03 1017 10 16.09344 0 0
6:52 am 06:52 Mostly Cloudy 66 19 55 13 68 68 S 14 22 30 1016 10 16.09344 0 0
7:52 am 07:52 Mostly Cloudy 70 21 55 13 60 60 SSW 14 22 30 1016 10 16.09344 0 0
8:52 am 08:52 Mostly Cloudy 73 23 59 15 61 61 S 14 22 30 1016 10 16.09344 0 0
9:52 am 09:52 Cloudy 73 23 61 16 65 65 SSW 13 20 29.97 1015 10 16.09344 0 0
10:52 am 10:52 Cloudy 79 26 64 18 61 61 SSW 15 24 29.94 1014 10 16.09344 0 0
11:52 am 11:52 Cloudy 81 27 66 19 62 62 SSW 16 26 29.94 1014 10 16.09344 0 0
12:52 pm 12:52 Cloudy 84 29 68 20 58 58 SSW 17 28 29.91 1013 10 16.09344 0 0
1:52 pm 13:52 Partly Cloudy 86 30 70 21 59 59 SSW 14 22 29.88 1012 10 16.09344 0 0
2:52 pm 14:52 Partly Cloudy 88 31 70 21 55 55 S 17 28 29.83 1010 10 16.09344 0 0
3:52 pm 15:52 Mostly Cloudy 86 30 72 22 62 62 S 15 24 29.8 1009 10 16.09344 0 0
4:52 pm 16:52 Mostly Cloudy 88 31 72 22 59 59 S 20 31 29.8 1009 10 16.09344 0 0
5:22 pm 17:22 Windy with Storms Likely 84 29 70 21 62 62 W 37 59 29.83 1010 1.75 2.816352 0 0
5:29 pm 17:29 Mostly Cloudy with Thunderstorms 75 24 68 20 78 78 W 9 15 29.83 1010 0.75 1.207008 0.08 2.032
5:33 pm 17:33 Mostly Cloudy with Heavy Thunderstorms 73 23 68 20 83 83 N 3 6 29.8 1009 1.75 2.816352 0.11 2.794
5:36 pm 17:36 Mostly Cloudy with Light Thunderstorms 73 23 68 20 83 83 Calm 29.8 1009 3 4.828032 0 0
5:39 pm 17:39 Mostly Cloudy with Light Thunderstorms 73 23 68 20 83 83 S 3 6 29.8 1009 5 8.04672 0.12 3.048
5:48 pm 17:48 Mostly Cloudy 75 24 66 19 74 74 S 5 7 29.8 1009 10 16.09344 0 0
5:52 pm 17:52 Mostly Cloudy 77 25 68 20 74 74 SE 6 9 29.77 1008 10 16.09344 0.12 3.048
6:52 pm 18:52 Mostly Cloudy 82 28 70 21 66 66 S 15 24 29.77 1008 10 16.09344 0 0
7:52 pm 19:52 Mostly Cloudy 84 29 70 21 62 62 SSW 16 26 29.77 1008 10 16.09344 0 0
8:16 pm 20:16 Mostly Cloudy with Thunderstorms 82 28 68 20 62 62 WNW 24 39 29.8 1009 10 16.09344 0 0
8:19 pm 20:19 Mostly Cloudy with Thunderstorms 79 26 64 18 61 61 WNW 21 33 29.8 1009 10 16.09344 0 0
8:37 pm 20:37 Cloudy with Light Thunderstorms 75 24 64 18 69 69 WNW 15 24 29.83 1010 10 16.09344 0 0
8:46 pm 20:46 Cloudy with Thunderstorms 73 23 66 19 78 78 NW 12 19 29.83 1010 4 6.437376 0.01 0.254
8:52 pm 20:52 Cloudy with Thunderstorms 72 22 66 19 83 83 W 5 7 29.8 1009 4 6.437376 0.05 1.27
9:13 pm 21:13 Cloudy with Thunderstorms 73 23 66 19 78 78 N 3 6 29.83 1010 3 4.828032 0.001 0.001
9:15 pm 21:15 Cloudy with Heavy Thunderstorms 72 22 66 19 83 83 Calm 29.83 1010 2 3.218688 0.05 1.27
9:17 pm 21:17 Cloudy with Heavy Thunderstorms 72 22 66 19 83 83 NNE 3 6 29.8 1009 1.5 2.414016 0.06 1.524
9:24 pm 21:24 Cloudy with Light Thunderstorms 72 22 68 20 88 88 Calm 29.8 1009 2 3.218688 0 0
9:27 pm 21:27 Cloudy with Light Thunderstorms 72 22 68 20 88 88 Calm 29.8 1009 7 11.265408 0.15 3.81
9:33 pm 21:33 Mostly Cloudy with Thunderstorms 72 22 66 19 83 83 SE 3 6 29.8 1009 10 16.09344 0.15 3.81
9:39 pm 21:39 Mostly Cloudy 73 23 68 20 83 83 ESE 5 7 29.8 1009 10 16.09344 0 0
9:52 pm 21:52 Mostly Cloudy 73 23 68 20 83 83 ESE 3 6 29.8 1009 10 16.09344 0.15 3.81
9:57 pm 21:57 Mostly Cloudy with Thunderstorms 73 23 68 20 83 83 SE 3 6 29.8 1009 10 16.09344 0 0
10:07 pm 22:07 Mostly Cloudy with Light Thunderstorms 73 23 70 21 89 89 WSW 6 9 29.83 1010 3 4.828032 0.001 0.001
10:09 pm 22:09 Mostly Cloudy with Light Thunderstorms 73 23 68 20 83 83 WSW 12 19 29.83 1010 1.75 2.816352 0.03 0.762
10:14 pm 22:14 Mostly Cloudy with Light Thunderstorms 72 22 68 20 88 88 SSE 5 7 29.8 1009 0.75 1.207008 0 0
10:17 pm 22:17 Mostly Cloudy with Light Thunderstorms 72 22 70 21 94 94 S 8 13 29.8 1009 1 1.609344 0.31 7.874
10:19 pm 22:19 Cloudy with Heavy Thunderstorms 72 22 70 21 94 94 SSE 9 15 29.8 1009 1 1.609344 0.32 8.128
10:22 pm 22:22 Mostly Cloudy with Light Thunderstorms 72 22 68 20 88 88 SSE 8 13 29.8 1009 3 4.828032 0 0
10:24 pm 22:24 Mostly Cloudy with Light Thunderstorms 72 22 70 21 94 94 SSE 8 13 29.8 1009 5 8.04672 0 0
10:32 pm 22:32 Mostly Cloudy 73 23 70 21 89 89 S 8 13 29.8 1009 10 16.09344 0 0
10:52 pm 22:52 Cloudy with Light Rain 73 23 68 20 83 83 SSW 7 11 29.8 1009 10 16.09344 0.33 8.382
11:52 pm 23:52 Cloudy 73 23 70 21 89 89 S 7 11 29.8 1009 10 16.09344 0.001 0.001

Powered by AerisWeather